• In Uzbekistan
  • List of Countries
  • For 7 days
  • Water Temperature
  • Satellite Maps
  • Weather Map
  • Weather Widgets
  • user-avatar
    Login

    Hourly Weather Plymouth

    Today, 16 December, Saturday

    Time Temperature Precipitation Wind Pressure Humidity
    00:00 +2°C° 0 mm 6 mps 760 mmHg 80%
    01:00 +2°C° 0 mm 6 mps 760 mmHg 81%
    02:00 +2°C° 0 mm 7 mps 761 mmHg 83%
    03:00 +3°C° 0 mm 7 mps 761 mmHg 84%
    04:00 +2°C° 0 mm 7 mps 761 mmHg 84%
    05:00 +2°C° 0 mm 7 mps 762 mmHg 84%
    06:00 +2°C° 0 mm 6 mps 762 mmHg 87%
    07:00 +2°C° 0 mm 6 mps 763 mmHg 86%
    08:00 +2°C° 0 mm 6 mps 763 mmHg 86%
    09:00 +2°C° 0 mm 6 mps 764 mmHg 86%
    10:00 +3°C° 0 mm 6 mps 764 mmHg 81%
    11:00 +5°C° 0 mm 6 mps 765 mmHg 77%
    12:00 +7°C° 0 mm 6 mps 765 mmHg 72%
    13:00 +7°C° 0.1 mm 6 mps 765 mmHg 75%
    14:00 +6°C° 0.1 mm 7 mps 765 mmHg 78%
    15:00 +5°C° 0.1 mm 8 mps 765 mmHg 80%
    16:00 +6°C° 0.2 mm 8 mps 765 mmHg 82%
    17:00 +6°C° 0.2 mm 8 mps 765 mmHg 83%
    18:00 +6°C° 0.2 mm 8 mps 766 mmHg 84%
    19:00 +5°C° 0.1 mm 8 mps 766 mmHg 85%
    20:00 +5°C° 0.1 mm 7 mps 766 mmHg 86%
    21:00 +4°C° 0.1 mm 6 mps 767 mmHg 87%
    22:00 +5°C° 0.1 mm 6 mps 767 mmHg 87%
    23:00 +6°C° 0.1 mm 5 mps 767 mmHg 87%

    Tomorrow, 17 December, Sunday

    Time Temperature Precipitation Wind Pressure Humidity
    00:00 +6°C° 0.1 mm 5 mps 767 mmHg 88%
    01:00 +6°C° 0 mm 5 mps 767 mmHg 88%
    02:00 +6°C° 0 mm 5 mps 767 mmHg 89%
    03:00 +6°C° 0 mm 4 mps 767 mmHg 89%
    04:00 +6°C° 0 mm 4 mps 767 mmHg 90%
    05:00 +6°C° 0 mm 4 mps 767 mmHg 90%
    06:00 +6°C° 0 mm 4 mps 767 mmHg 90%
    07:00 +6°C° 0 mm 4 mps 767 mmHg 91%
    08:00 +7°C° 0 mm 5 mps 767 mmHg 91%
    09:00 +7°C° 0 mm 5 mps 767 mmHg 91%
    10:00 +8°C° 0.4 mm 6 mps 767 mmHg 91%
    11:00 +8°C° 0.4 mm 7 mps 767 mmHg 91%
    12:00 +8°C° 0.4 mm 7 mps 767 mmHg 91%
    13:00 +9°C° 1.1 mm 7 mps 767 mmHg 92%
    14:00 +9°C° 1.1 mm 8 mps 766 mmHg 93%
    15:00 +9°C° 1.1 mm 8 mps 766 mmHg 94%
    16:00 +9°C° 0.1 mm 8 mps 766 mmHg 95%
    17:00 +10°C° 0.1 mm 7 mps 766 mmHg 95%
    18:00 +10°C° 0.1 mm 7 mps 766 mmHg 96%
    19:00 +10°C° 0.1 mm 6 mps 766 mmHg 96%
    20:00 +10°C° 0.1 mm 6 mps 766 mmHg 96%
    21:00 +12°C° 0.1 mm 5 mps 767 mmHg 96%
    22:00 +12°C° 0 mm 5 mps 767 mmHg 96%
    23:00 +10°C° 0 mm 5 mps 767 mmHg 96%

    Day after tomorrow, 18 December, Monday

    Time Temperature Precipitation Wind Pressure Humidity
    00:00 +10°C° 0 mm 5 mps 768 mmHg 96%
    01:00 +11°C° 0 mm 4 mps 768 mmHg 96%
    02:00 +11°C° 0 mm 4 mps 768 mmHg 96%
    03:00 +10°C° 0 mm 3 mps 768 mmHg 96%
    04:00 +10°C° 0 mm 3 mps 769 mmHg 96%
    05:00 +10°C° 0 mm 3 mps 769 mmHg 95%
    06:00 +9°C° 0 mm 2 mps 769 mmHg 95%
    07:00 +9°C° 0 mm 2 mps 770 mmHg 95%
    08:00 +9°C° 0 mm 2 mps 770 mmHg 94%
    09:00 +9°C° 0 mm 1 mps 770 mmHg 94%
    10:00 +10°C° 0 mm 1 mps 771 mmHg 91%
    11:00 +11°C° 0 mm 1 mps 771 mmHg 89%
    12:00 +12°C° 0 mm 1 mps 771 mmHg 86%
    13:00 +12°C° 0 mm 1 mps 771 mmHg 87%
    14:00 +12°C° 0 mm 1 mps 771 mmHg 89%
    15:00 +12°C° 0 mm 2 mps 771 mmHg 90%
    16:00 +10°C° 0.1 mm 2 mps 771 mmHg 91%
    17:00 +10°C° 0.1 mm 2 mps 771 mmHg 92%
    18:00 +10°C° 0.1 mm 3 mps 771 mmHg 93%
    19:00 +10°C° 0.1 mm 3 mps 772 mmHg 93%
    20:00 +10°C° 0.1 mm 3 mps 772 mmHg 93%
    21:00 +10°C° 0.1 mm 4 mps 772 mmHg 93%
    22:00 +10°C° 0.1 mm 4 mps 772 mmHg 93%
    23:00 +10°C° 0.1 mm 4 mps 773 mmHg 94%

    19 December, Tuesday

    Time Temperature Precipitation Wind Pressure Humidity
    00:00 +10°C° 0.1 mm 4 mps 773 mmHg 94%
    01:00 +10°C° 0.1 mm 3 mps 773 mmHg 95%
    02:00 +10°C° 0.1 mm 3 mps 773 mmHg 95%
    03:00 +11°C° 0.1 mm 3 mps 773 mmHg 95%
    04:00 +11°C° 0.1 mm 3 mps 773 mmHg 96%
    05:00 +11°C° 0.1 mm 3 mps 773 mmHg 96%
    06:00 +11°C° 0.1 mm 3 mps 773 mmHg 97%
    07:00 +11°C° 0.1 mm 3 mps 773 mmHg 97%
    08:00 +11°C° 0.1 mm 3 mps 774 mmHg 97%
    09:00 +12°C° 0.1 mm 3 mps 774 mmHg 97%
    10:00 +12°C° 0.1 mm 3 mps 774 mmHg 97%
    11:00 +12°C° 0.1 mm 3 mps 774 mmHg 97%
    12:00 +13°C° 0.1 mm 3 mps 775 mmHg 97%
    13:00 +13°C° 0 mm 3 mps 774 mmHg 97%
    14:00 +13°C° 0 mm 3 mps 774 mmHg 96%
    15:00 +13°C° 0 mm 3 mps 774 mmHg 96%
    16:00 +13°C° 0 mm 3 mps 774 mmHg 96%
    17:00 +13°C° 0 mm 3 mps 774 mmHg 97%
    18:00 +12°C° 0 mm 3 mps 774 mmHg 97%
    19:00 +12°C° 0 mm 3 mps 775 mmHg 97%
    20:00 +12°C° 0 mm 3 mps 775 mmHg 97%
    21:00 +12°C° 0 mm 3 mps 776 mmHg 97%
    22:00 +12°C° 0 mm 3 mps 776 mmHg 97%
    23:00 +12°C° 0 mm 3 mps 776 mmHg 97%

    20 December, Wednesday

    Time Temperature Precipitation Wind Pressure Humidity
    00:00 +12°C° 0 mm 3 mps 776 mmHg 97%
    01:00 +12°C° 0 mm 3 mps 775 mmHg 97%
    02:00 +12°C° 0 mm 3 mps 775 mmHg 97%
    03:00 +12°C° 0 mm 3 mps 775 mmHg 97%
    04:00 +12°C° 0 mm 3 mps 775 mmHg 96%
    05:00 +12°C° 0 mm 3 mps 775 mmHg 96%
    06:00 +12°C° 0 mm 3 mps 775 mmHg 96%
    07:00 +12°C° 0 mm 3 mps 776 mmHg 96%
    08:00 +12°C° 0 mm 3 mps 776 mmHg 95%
    09:00 +12°C° 0 mm 3 mps 776 mmHg 95%
    10:00 +12°C° 0 mm 4 mps 776 mmHg 93%
    11:00 +13°C° 0 mm 4 mps 776 mmHg 91%
    12:00 +13°C° 0 mm 5 mps 776 mmHg 89%
    13:00 +13°C° 0 mm 5 mps 776 mmHg 90%
    14:00 +13°C° 0 mm 5 mps 776 mmHg 91%
    15:00 +13°C° 0 mm 5 mps 775 mmHg 92%
    16:00 +13°C° 0 mm 5 mps 776 mmHg 93%
    17:00 +13°C° 0 mm 5 mps 776 mmHg 94%
    18:00 +12°C° 0 mm 5 mps 776 mmHg 96%
    19:00 +12°C° 0 mm 5 mps 776 mmHg 95%
    20:00 +12°C° 0 mm 5 mps 776 mmHg 95%
    21:00 +11°C° 0 mm 6 mps 776 mmHg 95%
    22:00 +11°C° 0 mm 6 mps 776 mmHg 94%
    23:00 +11°C° 0 mm 6 mps 776 mmHg 94%

    21 December, Thursday

    Time Temperature Precipitation Wind Pressure Humidity
    00:00 +11°C° 0 mm 6 mps 776 mmHg 94%
    01:00 +11°C° 0 mm 6 mps 776 mmHg 94%
    02:00 +11°C° 0 mm 6 mps 775 mmHg 94%
    03:00 +11°C° 0 mm 6 mps 775 mmHg 94%
    04:00 +11°C° 0 mm 6 mps 775 mmHg 94%
    05:00 +11°C° 0 mm 7 mps 775 mmHg 93%
    06:00 +11°C° 0 mm 7 mps 774 mmHg 93%
    07:00 +11°C° 0.1 mm 7 mps 775 mmHg 93%
    08:00 +11°C° 0.1 mm 7 mps 775 mmHg 93%
    09:00 +11°C° 0.1 mm 8 mps 775 mmHg 92%
    10:00 +11°C° 0.1 mm 8 mps 775 mmHg 91%
    11:00 +11°C° 0.1 mm 8 mps 774 mmHg 90%
    12:00 +11°C° 0.1 mm 9 mps 774 mmHg 89%
    13:00 +11°C° 0 mm 9 mps 774 mmHg 88%
    14:00 +11°C° 0 mm 9 mps 773 mmHg 87%
    15:00 +11°C° 0 mm 10 mps 773 mmHg 85%
    16:00 +11°C° 0.2 mm 9 mps 773 mmHg 88%
    17:00 +11°C° 0.2 mm 9 mps 773 mmHg 90%
    18:00 +11°C° 0.2 mm 9 mps 773 mmHg 92%
    19:00 +10°C° 0 mm 9 mps 774 mmHg 89%
    20:00 +9°C° 0 mm 8 mps 775 mmHg 86%
    21:00 +7°C° 0 mm 8 mps 775 mmHg 83%
    22:00 +7°C° 0 mm 8 mps 776 mmHg 84%
    23:00 +6°C° 0 mm 7 mps 777 mmHg 84%
    Show more

    XHprof extension not loaded